Weather History for KMXF - August, 2014

Change the Weather History Date:

Sunday, August 24, 2014

  Actual Average Record
Temperature  
Mean Temperature 86 °F -  
Max Temperature 95 °F 90 °F 99 °F (2007)
Min Temperature 76 °F 71 °F 67 °F (2012)
Cooling Degree Days 20    
Growing Degree Days 36 (Base 50)    
Moisture  
Dew Point 75 °F    
Average Humidity 84    
Maximum Humidity 100    
Minimum Humidity 51    
Precipitation  
Precipitation 0.26 in - - ()
Sea Level Pressure  
Sea Level Pressure 29.91 in    
Wind  
Wind Speed 4 mph (North)    
Max Wind Speed 14 mph    
Max Gust Speed 23 mph    
Visibility 9 miles    
Events Rain    
Averages and records for this station are not official NWS values.
T = Trace of Precipitation, MM = Missing Value Source: NWS Daily Summary

Daily Weather History Graph

Daily Weather History Graph

Search for Another Location

Airport or City:

Trip Planner

Search our weather history database for the weather conditions in past years. The results will help you decide how hot, cold, wet, or windy it might be!

Date:

Astronomy

Aug. 24, 2014 Rise Set
Actual Time 6:15 AM CDT 7:19 PM CDT
Civil Twilight 5:49 AM CDT 7:45 PM CDT
Nautical Twilight 5:19 AM CDT 8:15 PM CDT
Astronomical Twilight 4:48 AM CDT 8:46 PM CDT
Moon 5:25 AM CDT (8/24) 6:39 PM CDT (8/24)
Length of Visible Light 13h 55m
Length of Day
13h 04m
Waning Crescent, 1% of the Moon is Illuminated
Aug 24
Waning Crescent
Aug 25
New
Sep 2
First Quarter
Sep 8
Full
Sep 15
Last Quarter

Hourly Weather History & Observations

Time (CDT) Temp. Heat Index Dew Point Humidity Pressure Visibility Wind Dir Wind Speed Gust Speed Precip Events Conditions
12:58 AM 78.3 °F - 76.3 °F 94% 29.91 in 10.0 mi Calm Calm - N/A   Clear
1:58 AM 77.9 °F - 75.9 °F 94% 29.91 in 10.0 mi NW 2.3 mph - N/A   Clear
2:58 AM 77.0 °F - 73.9 °F 90% 29.89 in 10.0 mi NW 4.6 mph - N/A   Clear
3:58 AM 77.5 °F - 74.3 °F 90% 29.91 in 10.0 mi NNW 4.6 mph - N/A   Mostly Cloudy
4:58 AM 76.5 °F - 74.8 °F 95% 29.89 in 10.0 mi SW 2.3 mph - N/A   Clear
5:58 AM 76.5 °F - 74.8 °F 95% 29.91 in 10.0 mi NW 1.2 mph - N/A   Mostly Cloudy
6:58 AM 76.5 °F - 75.4 °F 96% 29.93 in 10.0 mi South 2.3 mph - N/A   Clear
7:58 AM 81.0 °F 86.0 °F 73.4 °F 78% 29.93 in 10.0 mi North 1.2 mph - 0.00 in   Light Drizzle
7:59 AM 80.6 °F 85.4 °F 73.4 °F 79% 29.92 in 10.0 mi Calm Calm - N/A   Clear
8:58 AM 83.8 °F 91.4 °F 74.7 °F 74% 29.91 in 10.0 mi NE 2.3 mph - 0.00 in   Clear
9:58 AM 87.4 °F 98.2 °F 76.3 °F 69% 29.94 in 10.0 mi Variable 5.8 mph - N/A   Clear
10:58 AM 90.1 °F 101.2 °F 75.7 °F 62% 29.94 in 10.0 mi North 5.8 mph - N/A   Clear
11:58 AM 92.3 °F 103.4 °F 74.8 °F 57% 29.93 in 10.0 mi Variable 4.6 mph - N/A   Clear
12:58 PM 94.1 °F 105.9 °F 75.0 °F 54% 29.91 in 10.0 mi Variable 2.3 mph - N/A   Partly Cloudy
1:58 PM 95.0 °F 105.9 °F 74.3 °F 51% 29.88 in 10.0 mi NNW 11.5 mph 18.4 mph N/A   Partly Cloudy
2:18 PM 86.0 °F 93.4 °F 73.4 °F 66% 29.87 in 9.0 mi WNW 12.7 mph 23.0 mph N/A Rain Light Rain
2:34 PM 82.4 °F 88.2 °F 73.4 °F 74% 29.86 in 10.0 mi WNW 5.8 mph - N/A   Clear
2:58 PM 89.2 °F 100.1 °F 75.7 °F 64% 29.88 in 10.0 mi NW 6.9 mph - 0.00 in   Clear
3:58 PM 88.5 °F 98.3 °F 74.8 °F 64% 29.85 in 10.0 mi NW 9.2 mph - N/A   Partly Cloudy
4:58 PM 90.9 °F 99.4 °F 73.4 °F 56% 29.88 in 10.0 mi NNW 8.1 mph - N/A   Clear
5:55 PM 80.6 °F 85.4 °F 73.4 °F 79% 29.92 in 9.0 mi East 13.8 mph - N/A Rain Light Rain
5:58 PM 80.6 °F 85.4 °F 73.4 °F 79% 29.93 in 6.0 mi ENE 11.5 mph - N/A Rain Light Rain
6:08 PM 77.0 °F - 75.2 °F 94% 29.93 in 2.0 mi ENE 5.8 mph - N/A Rain Rain
6:13 PM 77.0 °F - 75.2 °F 94% 29.92 in 1.2 mi ENE 4.6 mph - N/A Rain Heavy Rain
6:23 PM 77.0 °F - 75.2 °F 94% 29.90 in 2.5 mi ENE 5.8 mph - N/A Rain Heavy Rain
6:28 PM 77.0 °F - 75.2 °F 94% 29.90 in 3.0 mi NE 5.8 mph - N/A Rain Rain
6:54 PM 77.0 °F - 77.0 °F 100% 29.91 in 10.0 mi North 10.4 mph - N/A   Mostly Cloudy
6:58 PM 76.8 °F - 76.8 °F 100% 29.92 in 10.0 mi NNE 8.1 mph - 0.23 in   Mostly Cloudy
7:04 PM 77.0 °F - 77.0 °F 100% 29.91 in 10.0 mi NNE 6.9 mph - N/A Rain Light Rain
7:58 PM 77.2 °F - 77.2 °F 100% 29.93 in 10.0 mi East 4.6 mph - 0.03 in   Light Drizzle
8:01 PM 77.0 °F - 77.0 °F 100% 29.92 in 10.0 mi East 4.6 mph - N/A   Partly Cloudy
8:58 PM 77.4 °F - 76.3 °F 96% 29.93 in 10.0 mi NNE 2.3 mph - 0.00 in   Partly Cloudy
9:58 PM 76.5 °F - 76.5 °F 100% 29.95 in 10.0 mi North 6.9 mph - N/A   Partly Cloudy
10:58 PM 76.3 °F - 76.3 °F 100% 29.96 in 10.0 mi NNE 8.1 mph - N/A   Clear
11:58 PM 76.5 °F - 75.4 °F 96% 29.96 in 10.0 mi NE 6.9 mph - N/A   Clear